User: anonymous   Login
Location: Mauries
(43.6188°N, 0.3322°W)
Time: 05:55:47
(UTC+00:00)
Language:

Cosmos 2278 Rocket - Orbit

View from above orbital plane
View from above orbital plane
View from above satellite
View from above satellite

Ground track
Ground track

The orbit is defined by the following mean orbital elements,

1 23088U          26065.39239031 +.00000000 +00000-0 -69389-4 0 00003
2 23088  70.9986  77.8125 0005696 288.8436  71.2068 14.15012969    09
Epoch (UTC): 06 March 2026 09:25:02
Eccentricity: 0.0005696
inclination: 70.9986°
perigee height: 838 km
apogee height: 846 km
right ascension of ascending node: 77.8125°
argument of perigee: 288.8436°
revolutions per day: 14.15012969
mean anomaly at epoch: 71.2068°

The dashed part of the orbit path shows where the satellite is in the earth's shadow,  

DLR